Wind_Speed
15 15 15 14 13 8 9 14 12 8 10 11 11 14 15 10 10 21 14 18 18 17 14 14 17 12 10 10 8 7 8 7 4 4 7 7 8 8 7 5 2 1 1 1 1 1 3 4 4
17 15 16 15 12 9 6 20 11 12 9 11 13 13 15 9 11 11 8 15 15 16 19 18 14 12 12 10 7 6 7 7 6 5 3 3 5 7 6 5 4 4 3 2 3 3 2 2 3
20 18 18 16 15 10 13 29 20 11 13 13 16 18 19 11 15 12 12 14 13 15 18 17 14 14 12 11 10 10 10 11 10 9 8 6 6 6 7 7 7 8 6 4 5 5 5 3 3
22 22 22 20 18 18 29 15 14 16 16 17 17 21 18 17 18 15 14 15 15 15 18 18 17 15 15 14 14 16 16 15 14 13 11 11 9 7 7 8 10 11 9 6 6 7 7 6 5
18 19 19 21 18 31 25 24 21 20 21 21 20 27 19 20 19 19 20 21 20 20 19 20 19 18 18 20 19 18 19 20 19 17 16 15 13 11 9 9 11 13 13 10 8 8 8 7 8
16 16 17 16 18 22 23 21 21 21 22 23 20 25 20 22 22 21 21 22 22 21 20 21 20 21 21 20 21 21 22 23 24 22 21 19 18 16 14 12 13 14 16 15 11 10 10 9 8
18 18 18 13 19 19 23 18 19 20 20 22 22 23 22 21 20 22 23 23 22 23 23 23 21 21 22 22 22 23 24 25 27 26 26 24 23 20 18 16 16 17 17 19 16 13 12 11 10
18 19 21 21 23 21 20 21 19 22 26 13 20 28 22 17 20 22 23 24 25 25 26 26 26 25 25 25 25 24 25 28 29 29 29 29 28 26 23 21 19 19 21 21 20 17 15 14 12
18 18 19 20 23 21 16 22 21 20 23 24 23 29 20 20 22 23 25 27 30 29 30 31 29 29 30 31 31 30 29 29 30 31 32 32 32 32 30 26 24 22 23 24 24 21 18 17 15
19 20 18 23 24 26 19 22 23 21 25 25 26 29 26 25 25 26 27 29 33 35 37 35 34 33 34 33 34 34 33 33 32 33 34 35 35 34 34 32 30 26 25 26 27 26 22 20 18
22 22 28 21 25 25 23 23 23 24 27 26 30 30 28 27 27 29 31 30 33 36 38 37 38 38 39 39 37 38 37 36 36 34 35 36 36 35 36 34 34 31 28 27 29 29 27 24 19
23 26 25 26 23 24 25 25 26 25 27 33 26 28 28 28 29 30 31 32 34 37 38 39 39 37 39 41 39 41 41 41 40 38 36 38 38 37 37 34 34 32 30 29 28 32 31 28 22
25 26 25 25 25 26 27 25 25 24 25 27 23 26 26 28 28 29 29 29 31 32 36 33 37 33 35 37 42 41 42 44 44 45 40 39 39 39 38 37 34 31 31 30 28 31 33 31 28
29 26 27 27 28 28 27 25 24 23 24 24 25 24 24 25 26 27 27 28 29 30 32 34 34 32 32 33 36 38 42 43 42 46 47 44 40 41 40 39 37 34 32 31 29 30 33 33 31
28 28 28 28 29 30 28 27 27 27 22 23 23 23 24 25 25 25 26 25 25 26 28 31 33 30 29 31 32 35 39 40 32 46 46 46 46 42 43 42 38 37 35 32 30 29 30 34 33
27 28 27 29 29 31 29 28 32 29 26 25 25 25 26 26 25 25 24 23 23 24 24 27 28 31 29 31 33 33 36 39 41 40 45 47 47 47 45 41 41 39 39 35 33 32 31 33 35
25 25 26 27 31 31 31 30 33 33 28 27 27 28 27 27 27 26 24 22 23 24 24 24 25 26 26 28 30 32 32 36 39 37 40 44 46 48 47 46 43 40 35 39 38 36 34 35 35
14 22 24 29 33 34 32 32 34 37 34 30 30 31 30 30 29 28 25 24 24 24 24 24 25 24 25 26 28 30 30 30 33 34 37 39 41 40 46 48 45 44 40 41 35 41 37 35 34
24 24 26 27 33 37 36 35 36 36 36 34 34 34 33 30 31 30 26 27 27 26 25 26 25 24 24 26 27 28 30 26 29 31 32 34 37 37 37 44 47 48 45 45 43 28 34 35 36
25 25 26 29 33 37 36 37 38 36 38 36 36 36 35 33 32 31 29 29 30 28 27 26 26 25 25 24 26 26 27 27 27 31 29 31 34 35 36 36 44 47 47 47 49 38 37 31 39
29 29 29 31 32 37 35 38 37 36 41 38 38 36 37 35 33 32 31 31 31 29 28 28 28 26 26 25 25 25 25 27 26 30 30 29 29 32 35 35 37 43 44 46 49 47 43 41 29
32 31 34 34 34 37 33 41 36 36 39 37 38 37 39 37 35 34 32 32 31 31 29 29 28 28 27 26 24 24 25 25 27 26 30 29 29 29 31 34 37 37 40 42 46 48 50 48 40
34 34 35 35 36 38 38 41 36 37 38 39 38 36 37 38 37 36 34 33 33 33 30 29 29 28 28 27 26 24 25 25 26 27 27 29 29 31 31 31 33 35 37 40 41 41 45 48 50
37 37 38 38 39 42 38 37 38 25 30 41 39 37 37 37 38 37 34 34 35 33 31 30 29 29 29 29 28 26 25 27 29 30 32 32 33 32 33 33 32 32 32 33 37 39 40 43 46
40 40 40 33 28 37 27 31 29 27 40 41 38 39 38 38 38 38 36 36 36 35 33 31 30 30 31 31 30 29 29 29 31 31 31 33 33 33 36 35 38 37 34 34 33 34 38 38 41
36 27 34 34 31 32 30 34 32 35 38 41 36 41 41 37 37 39 37 39 36 38 35 33 31 32 33 33 34 34 34 33 32 33 32 31 33 33 33 36 40 42 41 39 36 34 32 34 37
34 36 30 38 40 40 41 38 37 34 51 42 39 41 41 42 37 40 40 40 40 40 37 36 34 35 36 36 37 37 37 37 36 37 35 37 35 35 36 37 36 43 44 42 42 42 40 38 38
42 35 34 36 43 43 41 36 36 34 31 43 44 38 40 42 41 41 41 43 44 42 41 37 38 39 39 40 40 40 39 40 41 40 41 42 40 39 38 37 38 35 41 43 42 42 43 44 43
36 38 40 39 42 46 45 39 31 46 33 31 30 32 39 38 43 45 45 47 46 44 43 43 42 38 40 42 42 43 42 43 43 43 43 45 46 46 43 39 39 39 36 38 45 48 45 48 46
38 42 45 52 50 46 48 56 36 39 41 46 53 40 38 41 40 45 48 52 51 46 44 43 44 44 45 46 46 46 46 45 45 45 45 47 45 46 47 45 43 41 41 41 41 42 43 46 46
Wind_Direction
202 202 198 198 206 213 213 245 232 228 219 213 214 206 219 238 246 219 170 173 189 192 206 226 234 234 233 226 215 232 246 257 220 190 181 163 161 164 157 149 148 195 25 37 14 37 48 50 38
208 209 211 209 208 218 254 235 232 226 220 215 228 234 250 235 252 264 253 216 218 231 234 243 237 230 234 241 236 217 235 228 236 239 231 238 180 182 184 178 199 238 260 267 278 285 323 11 26
218 219 222 220 216 197 236 251 234 247 240 236 236 233 238 245 253 259 263 247 240 253 239 233 239 239 235 238 244 238 232 238 252 250 251 253 244 238 217 220 225 233 247 256 266 276 289 310 332
223 230 233 230 229 224 209 245 247 248 249 248 241 248 245 245 252 253 252 248 254 249 252 249 257 261 260 254 261 261 257 252 254 260 259 258 260 259 247 248 247 245 244 249 259 267 275 292 303
223 227 233 231 227 233 240 248 254 248 247 247 245 260 253 253 254 254 255 258 261 263 260 261 265 268 268 268 273 269 262 262 262 260 261 263 267 269 276 279 271 258 250 251 257 265 273 281 295
221 222 228 234 234 245 242 242 242 243 247 246 247 253 256 256 257 261 264 265 271 271 269 269 262 267 272 273 275 272 266 263 263 262 264 265 266 273 276 273 273 270 251 250 251 253 259 266 278
225 222 225 224 243 242 240 235 233 237 239 243 248 261 249 255 259 266 270 271 275 277 275 271 271 266 269 276 277 270 267 265 264 264 265 266 268 269 267 265 269 269 259 252 248 248 253 261 272
227 225 223 226 233 246 241 239 234 233 234 245 242 255 248 264 268 269 270 275 274 274 275 276 276 275 272 267 270 271 268 266 264 266 265 266 265 264 261 259 261 267 268 257 253 250 247 253 260
228 230 231 231 235 243 233 240 236 241 242 235 239 246 250 256 257 261 268 271 272 268 265 268 266 268 268 271 270 269 267 266 267 268 268 265 264 265 264 261 258 258 266 265 260 254 253 252 258
237 234 237 237 237 238 241 241 240 243 247 243 242 245 247 248 255 262 263 269 270 270 271 272 273 273 273 272 272 271 268 268 267 266 268 267 266 264 263 263 262 260 261 267 266 261 256 255 258
247 242 240 250 245 246 249 246 252 247 253 254 252 255 258 260 260 258 263 263 271 273 269 270 270 272 272 273 274 275 274 269 267 269 266 266 265 265 267 265 265 263 262 263 268 264 261 260 259
248 250 255 248 247 247 249 244 248 246 248 253 264 260 257 256 256 257 258 259 262 265 270 275 269 268 268 269 266 267 267 268 269 264 264 265 265 264 265 265 266 267 264 262 263 266 262 264 260
253 252 250 246 244 244 246 250 249 251 251 260 251 252 249 250 252 252 254 256 260 264 270 269 271 271 270 268 266 262 259 259 261 266 261 259 261 262 263 263 263 263 265 266 261 263 261 263 269
253 255 249 247 246 247 250 252 253 252 255 257 257 254 251 250 250 253 256 257 259 262 268 273 272 270 271 270 270 268 267 261 256 257 261 261 258 259 259 262 261 261 260 260 263 259 262 261 265
258 257 252 250 250 252 253 253 255 255 258 257 256 256 254 253 255 256 255 260 266 271 273 277 281 279 274 272 271 274 272 271 248 258 253 254 258 255 256 257 257 258 256 256 254 255 256 258 262
262 259 261 255 254 257 257 259 261 256 259 259 259 260 262 263 262 259 261 263 266 270 273 275 276 278 276 278 277 273 272 272 271 265 258 252 250 255 254 255 254 257 255 254 253 250 246 250 253
264 263 261 262 257 262 259 262 262 262 259 259 260 262 264 265 264 264 263 263 267 272 277 279 279 279 279 277 278 279 277 272 271 268 260 257 252 249 251 255 255 252 259 254 256 248 246 248 251
260 268 252 258 268 259 264 263 264 270 268 266 265 266 267 267 267 267 268 268 273 276 281 285 286 288 287 283 281 281 281 275 268 266 263 260 258 256 250 249 252 252 247 255 264 248 243 247 249
263 263 264 262 266 265 264 263 266 269 270 269 267 267 268 268 266 267 267 268 273 276 280 283 287 291 290 287 284 282 282 276 266 267 262 259 260 261 261 255 251 251 252 251 249 258 242 247 251
265 265 266 265 267 269 268 268 267 269 269 266 266 266 267 264 266 269 269 265 269 273 276 281 286 289 291 291 286 280 277 276 269 266 269 260 261 261 260 261 254 252 252 254 254 258 244 253 249
270 269 268 268 270 274 274 269 270 269 267 269 266 266 266 266 267 269 269 266 268 273 274 278 282 287 289 291 289 283 278 274 271 266 263 260 262 264 262 258 259 256 258 254 254 251 253 241 238
273 276 273 273 271 273 274 272 269 271 273 267 267 265 264 265 264 266 268 268 270 271 270 275 279 282 284 289 289 284 276 272 272 271 268 266 265 265 265 263 260 261 256 257 254 254 251 252 257
274 273 274 273 273 273 272 272 276 274 270 270 270 266 265 263 263 263 264 265 267 268 269 272 274 278 280 286 287 283 279 276 275 277 278 274 272 269 269 268 269 264 262 257 259 256 254 253 251
276 276 275 277 279 275 278 278 272 271 272 267 266 265 264 261 260 262 263 264 265 265 266 267 270 273 277 281 284 284 281 279 278 274 275 278 277 270 269 270 271 270 269 267 259 259 257 255 252
276 278 278 278 273 281 287 271 269 241 250 261 269 269 262 261 260 259 259 261 263 266 265 265 267 270 273 276 280 280 279 277 280 282 278 278 277 272 268 267 270 268 268 267 268 264 260 259 255
273 265 273 276 267 266 271 261 275 274 268 270 266 266 265 259 258 259 262 264 265 265 266 266 267 269 269 272 276 279 280 280 279 278 278 278 275 275 271 269 264 264 265 263 264 264 263 262 258
275 268 273 265 268 269 266 257 263 277 287 281 267 260 262 261 258 259 260 262 262 264 265 266 268 269 270 271 273 276 278 278 278 280 272 275 275 275 276 277 277 259 260 261 261 264 264 261 261
271 273 264 259 271 269 269 264 268 265 254 271 274 261 257 259 259 257 257 258 261 261 264 265 266 266 269 271 272 273 274 275 277 277 273 271 272 272 274 275 275 271 259 259 257 258 260 262 262
270 274 278 276 260 264 271 264 256 258 251 248 269 264 263 256 259 257 256 259 257 261 261 264 266 266 265 266 268 270 271 272 273 274 271 269 267 266 268 268 270 273 270 263 256 257 258 260 261
247 258 260 258 258 264 265 266 249 263 263 262 260 259 263 265 258 262 263 260 258 259 262 260 262 263 264 265 266 268 271 274 275 274 273 271 268 264 262 263 263 265 265 265 264 260 263 257 260
Height
5890 5892 5895 5897 5901 5901 5904 5909 5906 5908 5909 5909 5910 5910 5909 5907 5907 5900 5906 5908 5908 5909 5911 5912 5913 5912 5911 5911 5912 5913 5914 5915 5915 5915 5915 5915 5914 5913 5911 5912 5912 5912 5912 5911 5910 5910 5909 5908 5907
5889 5891 5894 5896 5900 5902 5907 5903 5905 5905 5906 5907 5908 5909 5908 5907 5907 5905 5908 5909 5907 5909 5910 5911 5911 5911 5910 5910 5911 5911 5913 5914 5915 5915 5914 5914 5914 5913 5911 5911 5911 5911 5911 5911 5910 5910 5909 5908 5906
5888 5890 5892 5895 5897 5902 5910 5900 5902 5903 5904 5905 5906 5905 5905 5906 5905 5907 5907 5907 5908 5909 5909 5909 5910 5910 5910 5910 5910 5910 5911 5912 5913 5913 5913 5914 5913 5912 5911 5910 5911 5910 5910 5910 5910 5910 5909 5908 5906
5885 5888 5890 5893 5895 5899 5895 5896 5900 5901 5901 5902 5903 5900 5903 5903 5903 5904 5905 5906 5907 5908 5908 5909 5910 5910 5910 5909 5909 5909 5909 5909 5910 5911 5911 5912 5911 5911 5910 5909 5909 5909 5908 5908 5909 5909 5908 5908 5907
5882 5885 5886 5889 5893 5889 5893 5895 5897 5897 5897 5898 5900 5896 5899 5900 5901 5902 5903 5904 5905 5905 5906 5906 5906 5907 5907 5907 5907 5907 5907 5907 5907 5907 5908 5909 5910 5910 5909 5908 5908 5908 5907 5907 5907 5907 5907 5906 5906
5880 5882 5884 5887 5890 5887 5889 5892 5893 5894 5894 5894 5896 5893 5896 5897 5898 5899 5900 5900 5900 5901 5901 5902 5903 5903 5903 5903 5903 5903 5904 5904 5904 5904 5905 5906 5907 5907 5907 5907 5907 5906 5906 5906 5906 5905 5905 5904 5904
5877 5880 5881 5886 5888 5884 5885 5888 5889 5890 5891 5891 5891 5890 5892 5894 5895 5895 5896 5896 5896 5896 5896 5897 5898 5899 5899 5898 5898 5899 5900 5900 5900 5901 5901 5902 5903 5904 5904 5905 5905 5904 5903 5903 5903 5903 5903 5903 5903
5874 5876 5877 5879 5882 5881 5881 5882 5884 5885 5884 5889 5888 5885 5887 5891 5891 5891 5891 5891 5891 5891 5891 5891 5892 5893 5893 5893 5893 5894 5895 5896 5896 5896 5897 5898 5899 5900 5901 5902 5902 5902 5901 5900 5901 5901 5900 5900 5900
5871 5873 5875 5876 5876 5877 5878 5878 5879 5880 5881 5882 5883 5880 5884 5885 5886 5886 5886 5886 5884 5885 5884 5883 5885 5886 5886 5887 5888 5889 5890 5891 5891 5891 5892 5892 5894 5895 5897 5899 5899 5899 5898 5898 5898 5898 5898 5897 5898
5869 5870 5873 5871 5872 5872 5872 5874 5874 5877 5876 5877 5877 5876 5878 5879 5881 5881 5882 5882 5880 5878 5877 5878 5880 5881 5881 5882 5882 5883 5884 5885 5885 5886 5887 5887 5888 5890 5892 5894 5895 5896 5896 5895 5895 5895 5895 5895 5895
5865 5867 5866 5867 5867 5867 5868 5870 5870 5872 5871 5873 5872 5872 5874 5875 5876 5877 5877 5878 5876 5873 5873 5873 5874 5875 5874 5875 5876 5876 5877 5879 5880 5880 5881 5881 5882 5884 5885 5889 5890 5891 5892 5892 5891 5891 5892 5892 5892
5861 5861 5862 5862 5863 5863 5863 5864 5865 5866 5867 5864 5868 5867 5869 5869 5870 5870 5871 5871 5870 5869 5867 5865 5865 5868 5869 5868 5870 5870 5870 5871 5871 5874 5875 5875 5876 5878 5879 5883 5884 5886 5887 5888 5888 5887 5888 5887 5890
5856 5856 5857 5857 5858 5858 5858 5859 5860 5860 5861 5860 5862 5863 5863 5863 5864 5864 5864 5865 5864 5863 5861 5863 5860 5863 5862 5862 5861 5863 5863 5864 5865 5865 5867 5868 5869 5871 5872 5874 5877 5881 5882 5883 5884 5883 5884 5883 5883
5850 5850 5851 5852 5853 5853 5854 5854 5854 5856 5855 5856 5856 5857 5858 5858 5859 5859 5859 5859 5859 5858 5856 5854 5854 5855 5855 5855 5854 5855 5855 5856 5858 5857 5858 5860 5863 5864 5865 5866 5870 5873 5876 5878 5879 5879 5879 5879 5879
5844 5845 5845 5847 5848 5848 5849 5849 5849 5849 5850 5850 5850 5851 5851 5852 5853 5853 5853 5853 5852 5852 5851 5848 5846 5847 5848 5847 5848 5847 5846 5848 5859 5849 5850 5852 5853 5856 5857 5859 5862 5864 5867 5871 5873 5874 5873 5874 5875
5839 5840 5839 5840 5842 5841 5844 5845 5842 5844 5845 5845 5844 5844 5845 5845 5845 5846 5846 5846 5846 5845 5845 5843 5841 5839 5841 5840 5840 5840 5839 5839 5839 5841 5840 5843 5845 5847 5850 5851 5853 5856 5859 5863 5866 5867 5867 5867 5868
5834 5834 5834 5834 5836 5835 5838 5839 5836 5837 5839 5840 5839 5839 5839 5839 5838 5838 5839 5839 5839 5838 5837 5837 5836 5834 5834 5834 5833 5832 5832 5831 5831 5833 5833 5833 5836 5839 5841 5843 5846 5849 5851 5854 5857 5860 5861 5861 5862
5831 5828 5829 5829 5827 5828 5830 5832 5830 5830 5832 5834 5833 5833 5833 5833 5833 5832 5832 5832 5831 5830 5829 5829 5828 5827 5827 5826 5826 5824 5823 5823 5823 5824 5824 5825 5827 5830 5833 5834 5837 5841 5843 5845 5848 5850 5853 5854 5856
5823 5824 5824 5823 5822 5820 5822 5824 5823 5823 5824 5826 5826 5826 5827 5827 5826 5825 5826 5825 5824 5824 5823 5822 5821 5820 5819 5819 5818 5818 5816 5816 5816 5815 5817 5818 5818 5822 5824 5825 5828 5830 5834 5836 5839 5841 5847 5849 5850
5817 5817 5817 5816 5815 5813 5815 5815 5815 5816 5815 5818 5818 5818 5819 5819 5819 5817 5817 5818 5817 5817 5816 5815 5813 5813 5812 5812 5812 5812 5810 5809 5809 5809 5811 5811 5812 5813 5815 5817 5819 5822 5824 5827 5829 5834 5840 5843 5844
5810 5810 5809 5809 5807 5805 5807 5806 5807 5808 5806 5808 5810 5811 5810 5810 5810 5809 5809 5809 5809 5809 5809 5808 5806 5806 5805 5805 5806 5805 5804 5802 5803 5802 5803 5805 5806 5806 5807 5809 5810 5812 5814 5817 5819 5825 5829 5832 5822
5802 5802 5801 5801 5800 5798 5799 5796 5799 5798 5798 5799 5799 5801 5801 5801 5801 5801 5801 5800 5800 5801 5801 5800 5800 5799 5799 5798 5798 5798 5798 5798 5796 5797 5796 5798 5799 5800 5800 5801 5802 5804 5806 5808 5810 5814 5819 5821 5822
5795 5793 5792 5791 5790 5789 5791 5787 5793 5791 5790 5789 5788 5791 5792 5793 5793 5792 5793 5792 5792 5792 5793 5793 5792 5792 5792 5791 5790 5791 5791 5792 5791 5791 5792 5791 5793 5794 5794 5795 5795 5797 5797 5799 5802 5806 5809 5813 5815
5785 5785 5784 5782 5781 5779 5781 5780 5783 5784 5782 5777 5780 5782 5782 5783 5783 5783 5784 5784 5783 5783 5785 5785 5784 5784 5784 5784 5783 5784 5785 5785 5784 5786 5785 5785 5786 5787 5788 5789 5790 5790 5791 5792 5794 5797 5800 5803 5807
5775 5775 5774 5775 5778 5773 5777 5774 5776 5772 5770 5770 5770 5770 5773 5773 5773 5773 5774 5774 5774 5774 5775 5775 5776 5776 5776 5776 5776 5776 5777 5778 5778 5779 5779 5779 5779 5779 5779 5782 5782 5783 5785 5786 5788 5788 5792 5795 5799
5769 5773 5769 5766 5769 5770 5765 5762 5763 5759 5761 5760 5764 5760 5760 5763 5763 5763 5763 5762 5764 5763 5765 5765 5767 5768 5768 5768 5768 5768 5769 5770 5771 5771 5771 5772 5771 5772 5772 5774 5774 5775 5777 5779 5781 5781 5784 5786 5790
5759 5757 5762 5756 5754 5754 5755 5759 5761 5753 5745 5747 5752 5752 5751 5751 5753 5753 5752 5753 5753 5753 5754 5755 5756 5757 5758 5758 5759 5759 5760 5760 5762 5761 5765 5763 5764 5764 5764 5765 5765 5765 5768 5770 5772 5774 5776 5777 5780
5744 5748 5747 5747 5740 5738 5742 5748 5750 5749 5743 5735 5733 5741 5741 5740 5741 5742 5742 5742 5741 5743 5744 5745 5746 5747 5747 5747 5749 5749 5750 5751 5750 5752 5754 5754 5755 5755 5755 5756 5756 5756 5758 5760 5762 5765 5767 5767 5770
5742 5736 5733 5733 5733 5728 5727 5733 5744 5730 5730 5726 5723 5726 5732 5731 5729 5730 5731 5729 5730 5731 5732 5733 5735 5737 5737 5737 5738 5738 5739 5740 5740 5741 5742 5743 5744 5745 5746 5747 5747 5747 5749 5750 5753 5754 5756 5758 5759
5722 5724 5725 5718 5716 5714 5712 5711 5728 5722 5722 5720 5719 5720 5719 5718 5719 5717 5717 5715 5717 5719 5721 5722 5723 5725 5725 5725 5725 5726 5727 5727 5729 5730 5730 5730 5731 5733 5734 5735 5736 5738 5738 5740 5741 5743 5744 5746 5748